{"data":{"norad_id":66538,"intl_designator":"2025-265Y","name":"STARLINK-35577","alt_names":[],"object_type":"PAYLOAD","status":"ACTIVE","operator":null,"country":"US","launch_date":"2025-11-19","launch_site_code":"AFETR","launch_vehicle":null,"mission":null,"orbit_class":"UNKNOWN","rcs_meters":null,"size_class":null,"mass_kg":null,"dimensions":null,"purposes":["comms"],"wikipedia_slug":null,"has_3d_model":false,"image_url":null,"decayed_at":null,"tle_current":{"epoch":"2026-05-25T04:35:16.584288Z","epoch_age_seconds":52420,"freshness":"FRESH","line1":"1 66538U 25265Y   26145.19116417  .00011236  00000+0  41711-3 0  9995","line2":"2 66538  42.9984 205.8634 0001134 274.5904  85.4818 15.27587804 28814","mean_motion":15.27587804,"eccentricity":0.0001134,"inclination_deg":42.9984,"raan_deg":205.8634,"arg_perigee_deg":274.5904,"mean_anomaly_deg":85.4818,"bstar":0.00041711,"rev_number":2881,"period_min":94.266267132361,"perigee_km":482.24767230229,"apogee_km":483.80378400904,"semimajor_km":6861.1627281557,"source":"CELESTRAK","updated_at":"2026-05-25T13:38:21.254007Z"}}}